[[{"header":{"parameterUnit":"m.s-1","parameterCategory":1,"la1":30.2991,"la2":30.254,"lo1":-89.0895,"lo2":-89.0444,"dy":0.0017,"dx":0.0017,"nx":28,"ny":28,"refTime":"2025-03-26T03:00:00:Z","depth":0,"parameterNumber":2,"parameterNumberName":"U-component_of_WINDS"},"data":[0,0,0,0,0,0,0,0,0,0,0,0,0,0,0,0,0,0,0,0,0,0,0,0,0,0,0,0,0,0,0,0,0,0,0,0,0,0,0,0,0,0,0,0,0,0,0,0,0,0,0,0,0,0,0,0,0,0,-5.0837,-5.0838,0,-5.0901,-5.0901,-5.0902,-5.0835,-5.0833,-5.083,-5.0828,-5.0891,-5.0895,-5.0899,0,0,0,0,0,0,0,0,0,0,0,0,0,-5.0655,-5.0659,-5.0837,-5.0838,-5.0839,-5.0901,-5.0901,-5.0902,-5.0836,-5.0832,-5.0829,-5.0826,-5.0889,-5.0894,-5.0899,0,0,0,0,0,0,0,0,0,0,0,0,0,-5.0728,-5.066,-5.0837,-5.0813,-5.0811,-5.09,-5.0902,-5.0903,-5.0836,-5.0832,-5.0828,-5.0825,-5.0888,-5.0894,-5.09,-5.1015,0,0,-5.0918,-5.0921,0,0,0,0,0,0,0,0,-5.0724,-5.0735,-5.0816,-5.0815,-5.0813,-5.0856,-5.086,-5.094,-5.0837,-5.0827,-5.0827,-5.0823,-5.0882,-5.0888,-5.0909,-5.1018,-5.1021,-5.0919,-5.0923,-5.0925,-5.0927,0,0,0,0,0,0,0,-5.0719,-5.0732,-5.0862,-5.0817,-5.0815,-5.0798,-5.0804,-5.0875,-5.0875,-5.0827,-5.0823,-5.0831,-5.0881,-5.0903,-5.091,-5.1022,-5.0919,-5.0924,-5.0928,-5.093,-5.1227,-5.1231,0,0,0,0,0,0,-5.0717,-5.0728,-5.086,-5.0864,-5.0758,-5.0805,-5.0811,-5.0846,-5.0874,-5.0875,-5.0834,-5.0828,-5.0894,-5.0903,-5.0912,-5.1047,-5.0925,-5.0931,-5.0934,-5.1223,-5.1228,-5.1233,0,0,0,0,0,0,-5.0713,-5.073,-5.0857,-5.0795,-5.081,-5.0812,-5.0851,-5.0849,-5.0872,-5.088,-5.0879,-5.0857,-5.0892,-5.0903,-5.099,-5.1048,-5.0934,-5.0939,-5.1218,-5.1225,-5.123,-5.1319,0,0,0,0,0,0,-5.0709,-5.0729,-5.0773,-5.0796,-5.0813,-5.0935,-5.0855,-5.0853,-5.0883,-5.0875,-5.0901,-5.0902,-5.089,-5.0981,-5.0996,-5.1054,-5.0944,-5.1213,-5.1221,-5.1228,-5.1311,-5.1328,-5.1342,0,0,0,0,0,-5.0702,-5.0795,-5.0775,-5.0792,-5.0869,-5.0939,-5.0948,-5.0933,-5.0888,-5.0932,-5.0937,-5.0901,-5.104,-5.099,-5.1006,-5.1068,-5.1209,-5.1219,-5.1228,-5.1304,-5.1324,-5.1342,0,0,0,0,0,0,-5.0777,-5.0798,-5.0776,-5.0879,-5.0908,-5.0927,-5.0982,-5.0955,-5.0997,-5.0987,-5.0966,-5.0973,-5.1064,-5.1075,-5.1019,-5.118,-5.1117,-5.113,-5.1169,-5.1189,-5.1204,-5.1198,-5.0949,0,0,0,0,0,-5.0806,-5.0862,-5.0876,-5.0966,-5.0982,-5.098,-5.101,-5.0996,-5.1024,-5.1035,-5.1047,-5.1075,-5.1125,-5.1158,-5.1205,-5.1313,-5.1317,-5.1364,-5.1379,-5.1392,-5.1403,-5.1459,-5.1479,-5.1264,-5.1264,-5.1263,0,0,-5.0865,-5.0884,-5.092,-5.0982,-5.1002,-5.1059,-5.099,-5.1054,-5.1095,-5.1045,-5.1126,-5.1136,-5.1166,-5.1264,-5.1308,-5.1276,-5.1464,-5.1404,-5.1414,-5.1418,-5.1471,-5.1491,-5.151,-5.127,-5.1269,-5.1268,0,0,-5.1002,-5.1023,-5.1099,-5.1121,-5.1153,-5.1151,-5.117,-5.1194,-5.1198,-5.1281,-5.1244,-5.1293,-5.138,-5.1402,-5.1425,-5.1573,-5.154,-5.1589,-5.1668,-5.1724,-5.1741,-5.1756,-5.1806,-5.1824,-5.16,-5.16,-5.16,0,-5.1071,-5.1157,-5.1141,-5.1207,-5.1235,-5.1193,-5.1269,-5.1292,-5.1337,-5.1357,-5.1321,-5.1429,-5.1447,-5.1548,-5.1584,-5.1605,-5.1624,-5.1584,-5.174,-5.1755,-5.1768,-5.1816,-5.1835,-5.1605,-5.1605,-5.1604,-5.1604,0,-5.1239,-5.1299,-5.1357,-5.1402,-5.1437,-5.1508,-5.1502,-5.1539,-5.1523,-5.1525,-5.1608,-5.1629,-5.1678,-5.1702,-5.1686,-5.1801,-5.178,-5.1743,-5.1678,-5.1795,-5.1838,-5.1857,-5.1613,-5.1611,-5.161,-5.1608,0,0,-5.1422,-5.1459,-5.148,-5.15,-5.1533,-5.1578,-5.1648,-5.1697,-5.1728,-5.1762,-5.1817,-5.1893,-5.1858,-5.1885,-5.1872,-5.1921,-5.2033,-5.1877,-5.1878,-5.1903,-5.2159,-5.2184,-5.2205,-5.2014,-5.2017,-5.202,-5.2155,0,-5.1557,-5.1677,-5.1666,-5.1779,-5.1833,-5.1795,-5.1855,-5.1882,-5.1886,-5.1932,-5.1937,-5.1989,-5.1941,-5.1957,-5.2004,-5.201,-5.2084,-5.2,-5.2063,-5.2066,-5.2054,-5.2229,-5.2256,-5.2382,-5.2173,-5.2175,-5.2178,0,-5.173,-5.177,-5.1889,-5.1914,-5.1936,-5.199,-5.2034,-5.2079,-5.2108,-5.2108,-5.2138,-5.2117,-5.2185,-5.2122,-5.2215,-5.2158,-5.2184,-5.2191,-5.2196,-5.2198,-5.2126,-5.2233,-5.2422,-5.244,-5.2205,-5.2203,-5.2201,0,-5.1848,-5.1932,-5.2014,-5.2032,-5.2064,-5.2102,-5.2117,-5.2143,-5.2173,-5.2212,-5.223,-5.2277,-5.2301,-5.2337,-5.2328,-5.2283,-5.2423,-5.2359,-5.2422,-5.2423,-5.245,-5.2448,-5.2643,-5.2473,-5.2473,-5.2472,-5.2472,0,-5.1999,-5.2072,-5.2067,-5.2117,-5.2198,-5.2185,-5.2265,-5.2275,-5.2299,-5.2349,-5.232,-5.2368,-5.2355,-5.2403,-5.2397,-5.2474,-5.2486,-5.2486,-5.2483,-5.2487,-5.2486,-5.25,-5.249,-5.2478,-5.2476,-5.2475,-5.2475,0,-5.2142,-5.2142,-5.2228,-5.2252,-5.2259,-5.2318,-5.2337,-5.2384,-5.2387,-5.2451,-5.2465,-5.2469,-5.2523,-5.2519,-5.258,-5.2576,-5.267,-5.2659,-5.266,-5.2656,-5.2719,-5.2712,-5.2927,-5.2954,-5.277,-5.2771,-5.2773,0,-5.2236,-5.2292,-5.2322,-5.2354,-5.2371,-5.2424,-5.2454,-5.2444,-5.2477,-5.2515,-5.2557,-5.2608,-5.2649,-5.2737,-5.2745,-5.2791,-5.2778,-5.2851,-5.2785,-5.2786,-5.2775,-5.2771,-5.2775,-5.2862,-5.2864,-5.2866,-5.2867,0,-5.2403,-5.24,-5.2446,-5.2492,-5.253,-5.2565,-5.2598,-5.2626,-5.2619,-5.2657,-5.2712,-5.2744,-5.2807,-5.2857,-5.2902,-5.2916,-5.289,-5.2889,-5.2905,-5.2908,-5.2905,-5.2905,-5.2692,-5.2883,-5.2881,-5.288,-5.2879,-5.2879,-5.2523,-5.257,-5.2598,-5.265,-5.2673,-5.2704,-5.2749,-5.2758,-5.2804,-5.2854,-5.2846,-5.2907,-5.2935,-5.2992,-5.3011,-5.3058,-5.3032,-5.3057,-5.3062,-5.3068,-5.3073,-5.2901,-5.3067,-5.3066,-5.3066,-5.3066,-5.3065,0,-5.2685,-5.2701,-5.2749,-5.2796,-5.2837,-5.2811,-5.2846,-5.2881,-5.2935,-5.2964,-5.3005,-5.3068,-5.3118,-5.313,-5.3178,-5.3213,-5.3202,-5.3225,-5.3221,-5.3224,-5.3096,-5.3075,-5.3233,-5.3233,-5.3233,-5.3233,-5.3233,-5.3233,-5.2774,-5.2851,-5.2853,-5.2942,-5.2958,-5.3018,-5.304,-5.3068,-5.3091,-5.3163,-5.3204,-5.3212,-5.3234,-5.3283,-5.3327,-5.3329,-5.3347,-5.3374,-5.3372,-5.325,-5.3233,-5.3217,-5.3198,-5.3379,-5.3379,-5.3496,-5.3497,-5.3497]},{"header":{"parameterUnit":"m.s-1","parameterCategory":1,"la1":30.2991,"la2":30.254,"lo1":-89.0895,"lo2":-89.0444,"dy":0.0017,"dx":0.0017,"nx":28,"ny":28,"refTime":"2025-03-26T03:00:00:Z","depth":0,"parameterNumber":3,"parameterNumberName":"V-component_of_WINDS"},"data":[0,0,0,0,0,0,0,0,0,0,0,0,0,0,0,0,0,0,0,0,0,0,0,0,0,0,0,0,0,0,0,0,0,0,0,0,0,0,0,0,0,0,0,0,0,0,0,0,0,0,0,0,0,0,0,0,0,0,2.6304,2.6305,0,2.6395,2.6396,2.6397,2.6406,2.6405,2.6404,2.6403,2.6493,2.6496,2.6499,0,0,0,0,0,0,0,0,0,0,0,0,0,2.6137,2.614,2.6304,2.6305,2.6306,2.6394,2.6396,2.6397,2.6406,2.6405,2.6404,2.6403,2.6491,2.6495,2.6499,0,0,0,0,0,0,0,0,0,0,0,0,0,2.6217,2.6141,2.6304,2.6322,2.6324,2.6394,2.6396,2.6397,2.6406,2.6405,2.6404,2.6402,2.649,2.6495,2.65,2.6557,0,0,2.6514,2.6517,0,0,0,0,0,0,0,0,2.6212,2.6223,2.6318,2.6321,2.6324,2.6388,2.637,2.6451,2.6407,2.6375,2.6403,2.6402,2.6459,2.6466,2.6486,2.6561,2.6565,2.6515,2.6518,2.652,2.6521,0,0,0,0,0,0,0,2.6207,2.6219,2.634,2.6319,2.6323,2.6324,2.6334,2.6385,2.6423,2.6378,2.6379,2.6389,2.646,2.6481,2.6488,2.6566,2.6515,2.6519,2.6522,2.6524,2.6696,2.6697,0,0,0,0,0,0,2.6198,2.6214,2.6337,2.6343,2.6263,2.6329,2.634,2.6368,2.6423,2.643,2.6391,2.639,2.6474,2.6482,2.6491,2.6564,2.652,2.6524,2.6527,2.6694,2.6696,2.6698,0,0,0,0,0,0,2.6195,2.6209,2.6333,2.6279,2.6295,2.6333,2.6365,2.6371,2.6392,2.6433,2.6439,2.6406,2.6473,2.6484,2.6541,2.6567,2.6527,2.6531,2.6692,2.6695,2.6697,2.6708,0,0,0,0,0,0,2.619,2.6208,2.623,2.6279,2.6298,2.6383,2.6367,2.6374,2.6401,2.6401,2.6448,2.6455,2.6473,2.6534,2.6546,2.6573,2.6535,2.669,2.6693,2.6696,2.6706,2.6711,2.6715,0,0,0,0,0,2.6184,2.6229,2.6231,2.6246,2.6327,2.6384,2.6395,2.6415,2.6403,2.6426,2.6452,2.6453,2.6562,2.654,2.6554,2.6582,2.6689,2.6692,2.6696,2.6704,2.671,2.6715,0,0,0,0,0,0,2.618,2.6235,2.6239,2.6301,2.6338,2.6386,2.6415,2.6421,2.6461,2.6458,2.6481,2.6492,2.6549,2.6571,2.6545,2.6642,2.6624,2.6631,2.6625,2.6631,2.6636,2.663,2.6539,0,0,0,0,0,2.6186,2.6229,2.6275,2.6325,2.6344,2.6376,2.6402,2.6415,2.6454,2.6469,2.6499,2.6536,2.6578,2.6606,2.6647,2.6709,2.672,2.6735,2.674,2.6743,2.6749,2.6785,2.6793,2.671,2.671,2.671,0,0,2.62,2.6236,2.6261,2.6326,2.6356,2.6399,2.6389,2.6435,2.6468,2.6475,2.6532,2.6556,2.6598,2.6658,2.6686,2.6679,2.6775,2.6748,2.6751,2.6755,2.679,2.6798,2.6805,2.6713,2.6712,2.6712,0,0,2.6248,2.6278,2.6325,2.6356,2.6403,2.6424,2.6435,2.6483,2.6499,2.6557,2.6564,2.6602,2.6675,2.6706,2.6731,2.6792,2.6795,2.6804,2.6829,2.6864,2.6871,2.6877,2.69,2.6908,2.681,2.681,2.681,0,2.6258,2.6326,2.6348,2.6395,2.6423,2.6434,2.6481,2.651,2.6567,2.6586,2.6577,2.667,2.6699,2.6767,2.6783,2.6802,2.6816,2.6799,2.6868,2.6874,2.688,2.6903,2.6911,2.6811,2.6811,2.6811,2.6811,0,2.6337,2.6384,2.6415,2.6473,2.6505,2.6551,2.6581,2.661,2.662,2.6643,2.6702,2.6738,2.6787,2.6804,2.6814,2.6875,2.6869,2.6864,2.6847,2.6889,2.6911,2.6919,2.6812,2.6812,2.6812,2.6811,0,0,2.6385,2.6455,2.6467,2.6494,2.6546,2.6582,2.663,2.668,2.6706,2.6744,2.6785,2.6847,2.6844,2.6872,2.6885,2.6916,2.6964,2.6907,2.6908,2.6918,2.7036,2.704,2.705,2.6966,2.6968,2.6969,2.7033,0,2.644,2.6526,2.6548,2.6622,2.6666,2.6677,2.6718,2.6755,2.6777,2.6817,2.6841,2.6886,2.6877,2.6894,2.6925,2.6952,2.6988,2.6947,2.7005,2.7007,2.6995,2.7061,2.7066,2.7124,2.7041,2.7042,2.7043,0,2.6515,2.6558,2.6637,2.6686,2.6705,2.6742,2.6791,2.6829,2.6871,2.6885,2.6918,2.6929,2.6979,2.6959,2.7028,2.7,2.7025,2.7041,2.7044,2.7051,2.7028,2.7071,2.7142,2.7152,2.7057,2.7056,2.7055,0,2.6544,2.6621,2.6679,2.6701,2.676,2.6786,2.6811,2.6852,2.6881,2.6923,2.6943,2.6989,2.7015,2.7051,2.7074,2.7057,2.7142,2.7124,2.7156,2.7156,2.7174,2.7173,2.7252,2.7188,2.7188,2.7187,2.7187,0,2.6604,2.6652,2.6693,2.6729,2.6783,2.6808,2.686,2.6886,2.6922,2.6963,2.6974,2.7012,2.704,2.7081,2.7099,2.7155,2.7166,2.7179,2.7183,2.7179,2.7177,2.7196,2.7193,2.719,2.7189,2.7189,2.7188,0,2.6646,2.6676,2.6739,2.679,2.6804,2.6842,2.6885,2.692,2.6943,2.6994,2.7007,2.7044,2.7093,2.712,2.7181,2.7193,2.7256,2.7257,2.7243,2.7245,2.7276,2.7274,2.7371,2.7386,2.731,2.7311,2.7312,0,2.6683,2.6721,2.6776,2.6805,2.6831,2.6877,2.6908,2.6933,2.6965,2.7017,2.7045,2.7096,2.7138,2.7216,2.7248,2.7295,2.7298,2.7329,2.7306,2.7301,2.7301,2.7299,2.7304,2.7334,2.7335,2.7335,2.7336,0,2.6747,2.676,2.6804,2.6855,2.6892,2.6932,2.6972,2.6994,2.7026,2.7061,2.7113,2.7145,2.7209,2.726,2.731,2.7335,2.7341,2.7343,2.7353,2.735,2.734,2.7348,2.7256,2.7341,2.734,2.734,2.734,2.7339,2.6789,2.6823,2.6869,2.6918,2.6951,2.6989,2.7025,2.7053,2.7097,2.7152,2.7164,2.7219,2.7261,2.733,2.7357,2.74,2.7393,2.7408,2.7412,2.7415,2.7418,2.7332,2.7408,2.7408,2.7408,2.7408,2.7408,0,2.6854,2.6884,2.693,2.6986,2.7026,2.7029,2.7073,2.7106,2.7155,2.7194,2.7236,2.7296,2.7345,2.7381,2.7431,2.7459,2.7463,2.7471,2.747,2.7476,2.7419,2.7406,2.7467,2.7467,2.7467,2.7467,2.7467,2.7467,2.6893,2.6953,2.6972,2.7048,2.7077,2.7132,2.7158,2.7193,2.7224,2.7292,2.7333,2.7357,2.7395,2.7448,2.7494,2.7503,2.7521,2.753,2.7539,2.7486,2.748,2.7474,2.7462,2.7533,2.7533,2.7593,2.7593,2.7594]}]]